Regional Weather Roundup
Issued by NWS Upton, NY

Home | Current Version | Previous Version | Text Only | Print | Product List | Glossary On
Versions: 1 2 3 4 5 6 7 8 9 10 11 12 13 14 15 16 17 18 19 20 21 22 23 24 25 26 27 28 29 30 31 32 33 34 35 36 37 38 39 40 41 42 43 44 45 46 47 48 49 50
000
ASUS41 KOKX 060518
RWROKX

REGIONAL WEATHER ROUNDUP
NATIONAL WEATHER SERVICE NEW YORK NY
100 AM EDT MON JUL 06 2015

NOTE: "FAIR" INDICATES FEW OR NO CLOUDS BELOW 12,000 FEET WITH NO
SIGNIFICANT WEATHER AND/OR OBSTRUCTIONS TO VISIBILITY.

NYZ071-072-176-178-NJZ106-104-060600-
NEW YORK CITY METRO AREA


CITY           SKY/WX    TMP DP  RH WIND       PRES   REMARKS
CENTRAL PARK   PTCLDY    74  64  71 CALM      30.17S
LAGUARDIA APRT PTCLDY    74  65  73 S3        30.14S
KENNEDY INTL   MOCLDY    71  66  84 S5        30.16S
NEWARK/LIBERTY MOCLDY    73  67  81 S5        30.15R
BRNX BOT. GARD   N/A     70  64  83 CALM      30.17R
TETERBORO      PTCLDY    71  64  78 CALM      30.14R
$$

NYZ177-179-078>081-060600-
LONG ISLAND NEW YORK

CITY           SKY/WX    TMP DP  RH WIND       PRES   REMARKS
FARMINGDALE    PTCLDY    71  66  84 SW3       30.16S
ISLIP          PTCLDY    68  63  84 SW3       30.14S
SHIRLEY        PTCLDY    69  64  84 SW5       30.16S
WESTHAMPTON    PTCLDY    62  61  96 CALM      30.17S FOG
MONTAUK POINT    N/A     67  62  84 CALM      30.17S
$$

NYZ052-065-067-060600-
HUDSON VALLEY

CITY           SKY/WX    TMP DP  RH WIND       PRES   REMARKS
WHITE PLAINS   CLEAR     65  63  93 CALM      30.16R
NEWBURGH       CLEAR     66  63  88 CALM      30.17S
MONTGOMERY     CLEAR     63  62  97 CALM      30.15S
POUGHKEEPSIE   PTCLDY    65  62  90 CALM      30.14S
ALBANY         PTCLDY    66  58  75 E3        30.14S
$$

NJZ001-105-106-008-010-013-015-019>022-104-060600-
NEW JERSEY

CITY           SKY/WX    TMP DP  RH WIND       PRES   REMARKS
NEWARK/LIBERTY MOCLDY    73  67  81 S5        30.15R
TETERBORO      PTCLDY    71  64  78 CALM      30.14R
CALDWELL       PTCLDY    68  62  81 CALM      30.16R
MORRISTOWN     MOCLDY    64  61  88 CALM      30.15F
SOMERVILLE     CLOUDY    65  62  90 CALM      30.13S
SUSSEX         PTCLDY    63  60  90 CALM      30.17R FOG
ANDOVER          N/A     63  62  97 CALM      30.17S
TRENTON        CLOUDY    72  67  84 S6        30.15R
MILLVILLE      CLOUDY    70  68  93 CALM      30.14F
ATLANTIC CITY  CLOUDY    72  68  87 CALM      30.15F
WRIGHTSTOWN    CLOUDY    69  68  97 S3        30.13S
TOMS RIVER     CLOUDY    68  64  88 CALM      30.16S
BELMAR         MOCLDY    70  63  78 SW3       30.16S
$$

PAZ047>061-062-071-060600-
EASTERN PENNSYLVANIA

CITY           SKY/WX    TMP DP  RH WIND       PRES   REMARKS
PHILADELPHIA   CLOUDY    73  67  81 S6        30.15F
ALLENTOWN      CLOUDY    67  64  90 NW3       30.16R
SCRANTON       MOCLDY    65  57  75 E6        30.17S
$$

CTZ002-004>006-009-010-012-RIZ004-006-007-MAZ004-011-015-060600-
SOUTHERN NEW ENGLAND
 IN CT

CITY           SKY/WX    TMP DP  RH WIND       PRES   REMARKS
BRADLEY INTL   PTCLDY    65  60  84 CALM      30.14S
HARTFORD       CLEAR     68  64  87 S3        30.14S
DANBURY        CLEAR     63  59  87 SW3       30.18R
WTRBRY/OXFORD  MOCLDY    64  59  82 CALM      30.18F
BRIDGEPORT     PTCLDY    69  64  84 CALM      30.15S
MERIDEN        CLEAR     65  62  90 CALM      30.15S FOG
NEW HAVEN      PTCLDY    70  65  84 CALM      30.15S
CHESTER        FAIR      68  64  88 W6        30.17S
GROTON         CLEAR     67  63  87 W3        30.15S
WILLIMANTIC    CLEAR     65  62  90 NE5       30.16S

 IN RI

CITY           SKY/WX    TMP DP  RH WIND       PRES   REMARKS
PROVIDENCE     CLEAR     68  63  84 W10         N/A
BLOCK ISLAND   CLEAR     66  61  82 W9        30.16S
WESTERLY       CLEAR     67  64  90 CALM      30.16S

 IN MA

CITY           SKY/WX    TMP DP  RH WIND       PRES   REMARKS
BOSTON         CLEAR     72  62  71 SW8       30.13S
WORCESTER      CLEAR     64  58  80 SW8       30.17S
WESTFIELD      CLEAR     62  59  90 CALM      30.15R
PROVINCETOWN   CLEAR     63   7  11 SW7       30.13S
NANTUCKET      CLEAR     66  62  87 W10       30.15S
$$

ANZ330-335-338-340-345-350-353-355-060600-
COASTAL MARINE OBSERVATIONS


STATION/POSITION TIME  SKY/WX   TEMP    WIND        PRES    VSBY  WAVE
                                AIR SEA DIR/SP/G                  HT/PER
                 (UTC)          (F)     (DEG/KT/KT) (MB)    (MI)  (FT/S)
NY HARB ENTRANCE 0450            71 70  210/  8/  8 1020.5          3/ 8
4S FIRE IS       0503               70                N/A           3/ 8
20S FIRE ISLAND  0450            71 70  210/  6/  6 1020.8          3/ 7
GREAT SOUTH BAY  0400            72 75  250/ 10/ 12   N/A
23SW MTP         0450            69 69  250/  8/  8 1020.9          3/ 8
HUDSON CANYON    NOT AVBL
KINGS POINT      0400            72 67  170/  4/  6 1020.1
CENTRAL LI SOUND NOT AVBL
EASTERN LI SOUND 0400            67 64  240/  4/  6   N/A
ROBBINS REEF     0400            74     190/  5/  6 1019.6
$$


>>>>>>>>>>>>>>>>>>>>>>>>>>>> KEY <<<<<<<<<<<<<<<<<<<<<<<<<<<
>                                                          <
>     SKY/WX - SKY CONDITION/PRESENT WEATHER               <
>     TMP    - TEMPERATURE IN FAHRENHEIT                   <
>     DP     - DEWPOINT IN FAHRENHEIT                      <
>     RH     - RELATIVE HUMIDITY IN PERCENT                <
>     WIND   - DIRECTION AND SPEED IN MPH                  <
>     PRES   - MEAN SEA LEVEL PRESSURE IN INCHES OF HG     <
>     WCI    - WIND CHILL INDEX                            <
>     VSB    - VISIBILITY IN MILES                         <
>     HX     - HEAT INDEX                                  <
>     TC     - TEMPERATURE IN CELSIUS                      <
>     VRB    - VARIABLE WIND DIRECTION                     <
>                                                          <
>>>>>>>>>>>>>>>>>>>>>>>>>>>> KEY <<<<<<<<<<<<<<<<<<<<<<<<<<<




USA.gov is the U.S. government's official web portal to all federal, state and local government web resources and services.